K3GM Weather Reports


Display with metric or nautical units.
time (UTC)temp
F
wind
direction
speed
MPH
gust
MPH
rain 1hr
in
rain 24hr
in
rain mn
in
humidity
%
barometer
mb
20260902201544 72 0 0.0 0.0 0.01 0.12 0.02 100 1018.6
20260902200044 72 0 0.0 0.0 0.01 0.12 0.02 100 1018.9
20260902194544 72 0 0.0 0.0 0.01 0.12 0.02 100 1019.2
20260902193054 72 0 0.0 0.0 0.00 0.11 0.01 100 1019.1
20260902191545 72 0 0.0 0.0 0.00 0.11 0.01 100 1019.3
20260902190042 72 0 0.0 0.0 0.01 0.11 0.01 100 1019.6
20260902184544 72 0 0.0 0.0 0.01 0.11 0.01 100 1019.6
20260902183043 72 0 0.0 0.0 0.01 0.11 0.01 100 1019.7
20260902181546 72 0 0.0 0.0 0.01 0.11 0.01 100 1019.6
20260902180042 72 0 0.0 0.0 0.00 0.10 0.00 100 1019.6
20260902174552 72 0 0.0 0.0 0.00 0.10 0.00 99 1020.0
20260902173045 73 0 0.0 0.0 0.00 0.10 0.00 98 1020.6
20260902171542 73 0 0.0 0.0 0.00 0.10 0.00 96 1020.7
20260902170043 73 0 0.0 0.0 0.00 0.10 0.00 96 1020.6
20260902164542 73 0 0.0 0.0 0.00 0.10 0.00 96 1020.4
20260902163039 73 0 0.0 0.0 0.00 0.10 0.00 96 1020.1
20260902161544 73 0 0.0 0.0 0.00 0.10 0.00 96 1020.1
20260902160048 73 0 0.0 0.0 0.00 0.10 0.00 97 1020.3
20260902154548 72 0 0.0 0.0 0.00 0.10 0.00 97 1020.3
20260902153043 72 0 0.0 0.0 0.00 0.10 0.00 98 1020.4
20260902151537 72 0 0.0 0.0 0.00 0.10 0.00 98 1020.4
20260902150042 72 0 0.0 0.0 0.00 0.10 0.00 99 1020.4
20260902144541 72 0 0.0 0.0 0.00 0.10 0.00 99 1020.3
20260902143038 71 0 0.0 0.0 0.00 0.10 0.00 100 1020.0
20260902141538 71 0 0.0 0.0 0.00 0.10 0.00 100 1020.4
20260902140048 71 0 0.0 0.0 0.00 0.10 0.00 100 1020.1
20260902134541 70 0 0.0 0.0 0.00 0.10 0.00 100 1020.3
20260902133042 70 0 0.0 0.0 0.00 0.10 0.00 100 1020.1
20260902131539 70 0 0.0 0.0 0.00 0.10 0.00 100 1019.9
20260902130043 69 0 0.0 0.0 0.00 0.10 0.00 100 1019.9
20260902124536 69 0 0.0 0.0 0.00 0.10 0.00 100 1019.8
20260902123041 69 0 0.0 0.0 0.00 0.10 0.00 100 1019.8
20260902121539 69 0 0.0 0.0 0.00 0.10 0.00 100 1019.5
20260902120038 69 0 0.0 0.0 0.00 0.10 0.00 100 1019.6
20260902114610 69 0 0.0 0.0 0.00 0.10 0.00 100 1019.7
20260902113048 69 0 0.0 0.0 0.00 0.10 0.00 100 1019.6
20260902111540 69 0 0.0 0.0 0.00 0.10 0.00 100 1019.6
20260902110038 70 0 0.0 0.0 0.00 0.10 0.00 100 1019.4
20260902104541 70 0 0.0 0.0 0.00 0.10 0.00 100 1019.4
20260902103052 70 0 0.0 0.0 0.00 0.10 0.00 100 1019.2
20260902101538 70 0 0.0 0.0 0.00 0.10 0.00 100 1019.2
20260902100055 70 0 0.0 0.0 0.00 0.10 0.00 100 1019.2
20260902094542 70 0 0.0 0.0 0.00 0.10 0.00 100 1019.1
20260902093054 70 0 0.0 0.0 0.00 0.10 0.00 100 1018.9
20260902091538 70 0 0.0 0.0 0.00 0.10 0.00 100 1018.7
20260902090041 70 0 0.0 0.0 0.00 0.10 0.00 100 1018.6
20260902084544 70 0 0.0 0.0 0.00 0.10 0.00 100 1018.7
20260902083039 70 0 0.0 0.0 0.00 0.10 0.00 100 1018.5
20260902081538 70 0 0.0 0.0 0.00 0.10 0.00 100 1018.2
20260902080039 70 0 0.0 0.0 0.00 0.10 0.00 100 1018.3
20260902074542 70 0 0.0 0.0 0.00 0.10 0.00 100 1018.1
20260902073041 70 0 0.0 0.0 0.00 0.10 0.00 100 1018.0
20260902071547 70 0 0.0 0.0 0.00 0.10 0.00 100 1017.8
20260902070043 71 0 0.0 0.0 0.00 0.10 0.00 100 1017.9
20260902064543 72 0 0.0 0.0 0.00 0.10 0.00 100 1017.8
20260902063039 72 0 0.0 0.0 0.00 0.10 0.00 100 1017.9
20260902061553 72 0 0.0 0.0 0.00 0.10 0.00 100 1017.7
20260902060054 72 0 0.0 0.0 0.00 0.10 0.00 100 1017.5
20260902054543 72 0 0.0 0.0 0.00 0.10 0.00 100 1017.4
20260902053042 72 0 0.0 0.0 0.00 0.10 0.00 100 1017.5
20260902051545 73 0 0.0 0.0 0.00 0.10 0.00 100 1017.6
20260902050046 73 0 0.0 0.0 0.00 0.10 0.00 100 1017.7
20260902044543 73 0 0.0 0.0 0.00 0.10 0.00 100 1017.8
20260902043045 73 0 0.0 0.0 0.00 0.10 0.00 100 1017.8
20260902041552 73 0 0.0 0.0 0.00 0.10 0.00 100 1017.5
20260902040045 73 0 0.0 0.0 0.00 0.10 0.00 100 1017.2
20260902034544 73 0 0.0 0.0 0.00 0.10 0.10 100 1017.2
20260902033043 73 0 0.0 0.0 0.00 0.10 0.10 100 1017.0
20260902031540 73 0 0.0 0.0 0.00 0.10 0.10 100 1016.7
20260902030038 73 0 0.0 0.0 0.00 0.10 0.10 100 1016.2
20260902024550 74 0 0.0 0.0 0.00 0.10 0.10 100 1016.4
20260902023051 74 0 0.0 0.0 0.00 0.10 0.10 98 1016.4
20260902021548 74 0 0.0 0.0 0.00 0.10 0.10 98 1016.5
20260902020038 75 0 0.0 0.0 0.07 0.10 0.10 97 1016.8
20260902014543 76 0 0.0 0.0 0.10 0.10 0.10 95 1017.1
20260902013042 76 0 0.0 0.0 0.10 0.10 0.10 94 1016.5
20260902011542 78 0 0.0 0.0 0.10 0.10 0.10 82 1015.7
20260902010040 81 0 0.0 0.0 0.03 0.03 0.03 74 1014.1
20260902004549 83 0 0.0 0.0 0.00 0.00 0.00 74 1013.7
20260902003043 84 0 0.0 0.0 0.00 0.00 0.00 80 1013.5
20260902001542 84 0 0.0 0.0 0.00 0.00 0.00 79 1013.3
20260902000041 84 0 0.0 0.0 0.00 0.00 0.00 78 1013.6
20260901234544 84 0 0.0 0.0 0.00 0.00 0.00 78 1013.6
20260901233053 85 0 0.0 0.0 0.00 0.00 0.00 76 1013.2
20260901231542 86 0 0.0 0.0 0.00 0.00 0.00 74 1013.7
20260901230042 86 0 0.0 0.0 0.00 0.00 0.00 72 1013.7
20260901224541 87 0 0.0 0.0 0.00 0.00 0.00 72 1013.5
20260901223039 88 0 0.0 0.0 0.00 0.00 0.00 66 1013.4
20260901221539 88 0 0.0 0.0 0.00 0.00 0.00 71 1013.4
20260901220042 88 0 0.0 0.0 0.00 0.00 0.00 69 1013.3
20260901214542 89 0 0.0 0.0 0.00 0.00 0.00 68 1013.9
20260901213056 89 0 0.0 0.0 0.00 0.00 0.00 67 1013.6
20260901211539 89 0 0.0 0.0 0.00 0.00 0.00 69 1013.6
20260901210038 89 0 0.0 0.0 0.00 0.00 0.00 61 1013.7
20260901204535 89 0 0.0 0.0 0.00 0.00 0.00 67 1013.7
20260901203104 89 0 0.0 0.0 0.00 0.00 0.00 65 1013.8